Weather Roundup
Issued by NWS

Home | Current Version | Previous Version | Graphics & Text | Print | Product List | Glossary Off
Versions: 1 2 3 4 5 6 7 8 9 10 11 12 13 14 15 16 17 18 19 20 21 22 23 24 25 26 27 28 29 30 31 32 33 34 35 36 37 38 39 40 41 42 43 44 45 46 47 48 49 50

000
NZUS93 KARX 161359
HRRWXR

CURRENT HOURLY OBSERVATIONS ACROSS
MUCH OF THE UPPER MISSISSIPPI VALLEY
NATIONAL WEATHER SERVICE LA CROSSE WI
800 AM CST MON JAN 16 2017


...SOUTHEAST MINNESOTA...


CITY           SKY/WX    TMP DP  RH WIND       PRES   REMARKS
ROCHESTER      CLOUDY    24  22  91 SE7       30.13F WCI  16
ROCHESTER/MAYO FAIR      25  19  77 E5        30.14F WCI  19
WINONA         CLOUDY    18  16  93 CALM      30.21F
AUSTIN         MIX PCPN  30  27  86 SE5       30.12S WCI  25
ALBERT LEA     MIX PCPN  28  28 100 SE5       30.11F WCI  23
DODGE CENTER   CLOUDY    19  16  86 CALM      30.12F
PRESTON        MIX PCPN  27  25  93 SE5       30.14F WCI  22
OWATONNA       CLOUDY    19  16  86 CALM      30.13S
FARIBAULT        N/A     14  10  85 CALM      30.15F
$$

...ELSEWHERE IN MINNESOTA...


CITY           SKY/WX    TMP DP  RH WIND       PRES   REMARKS
MINNEAPOLIS    CLOUDY    17  12  80 E5        30.18S WCI  10
INTNL FALLS    CLOUDY    -2  -7  79 CALM      30.05R HAZE
DULUTH         CLOUDY    16  14  92 W10       30.10R FOG     WCI   4
RED WING       CLOUDY    10   9  92 CALM      30.18F FOG
REDWOOD FALLS  CLOUDY    20  16  84 N5        30.12F WCI  13
MANKATO        CLOUDY    22  18  85 E6        30.14F WCI  14
WORTHINGTON    CLOUDY    26  23  88 E5        30.06F WCI  20
FAIRMONT       CLOUDY    27  26  96 SE6       30.10F FOG     WCI  20
$$

...SOUTHWEST WISCONSIN...


CITY           SKY/WX    TMP DP  RH WIND       PRES   REMARKS
PRAIRIE DU CHI MIX PCPN  29  26  88 E5        30.19F WCI  24
BOSCOBEL       MIX PCPN  29  27  92 NE3       30.21F FOG
LONE ROCK      NOT AVBL
PLATTEVILLE    CLOUDY    31  31 100 E10       30.19F WCI  22
FORT MC COY    CLOUDY    18  17  93 CALM      30.22S
MAUSTON-NEW LI CLOUDY    24  19  83 CALM      30.21S
VIROQUA        CLOUDY    26  24  90 SE7       30.17F WCI  19
WIS DELLS      MIX PCPN  27  23  85 CALM      30.22S
$$

...ELSEWHERE IN WISCONSIN...


CITY           SKY/WX    TMP DP  RH WIND       PRES   REMARKS
MILWAUKEE      FRZ RAIN  31  26  82 CALM      30.26S FOG
MADISON        FRZ RAIN  29  26  89 S5        30.22S FOG     WCI  24
GREEN BAY      CLOUDY    20  15  81 S5        30.25S WCI  13
EAU CLAIRE     NOT AVBL
BLACK RVR FLS  FAIR      10   6  84 CALM      30.21S
MEDFORD        CLOUDY     2  -2  83 E3        30.17F
WAUSAU         CLOUDY     3  -1  83 CALM      30.20F FOG
WIS RAPIDS     CLOUDY    10   8  92 NE5       30.23R FOG     WCI   2
MARSHFIELD     CLOUDY     7   5  91 NE3       30.18F FOG
RICE LAKE      CLOUDY     1  -3  87 N3        30.21S
$$

...NORTHEAST IOWA...


CITY           SKY/WX    TMP DP  RH WIND       PRES   REMARKS
WATERLOO       CLOUDY    31  29  92 E7        30.14F FOG     WCI  24
DUBUQUE        CLOUDY    30  29  96 E8        30.17F FOG     WCI  22
DECORAH        CLOUDY    28  27  93 SE7       30.15S FOG     WCI  21
MASON CITY     CLOUDY    29  27  92 SE12      30.12F FOG     WCI  19
CHARLES CITY   CLOUDY    30  30 100 SE9       30.14S FOG     WCI  22
OELWEIN        CLOUDY    30  30 100 E9        30.14F FOG     WCI  22
$$

...ELSEWHERE IN IOWA...


CITY           SKY/WX    TMP DP  RH WIND       PRES   REMARKS
DES MOINES     FRZ RAIN  33  31  92 E8        30.07F FOG     WCI  26
IOWA CITY      FRZ RAIN  33  31  92 E8        30.17S FOG     WCI  26
FORT DODGE     CLOUDY    30  27  86 CALM      30.09S
MARSHALLTOWN   MIX PCPN  31  30  96 E14       30.10F FOG     WCI  21
CEDAR RAPIDS   CLOUDY    31  30  96 E13       30.14S FOG     WCI  21
$$

...NORTHERN ILLINOIS...


CITY           SKY/WX    TMP DP  RH WIND       PRES   REMARKS
CHICAGO-OHARE  FRZ RAIN  32  30  92 E6        30.25F WCI  26
CHICAGO-MIDWAY LGT RAIN  33  29  85 E6        30.26R FOG     WCI  28
MOLINE         LGT RAIN  33  31  92 E9        30.18F FOG     WCI  25
ROCKFORD       FRZ RAIN  32  28  85 E6        30.24F WCI  26
PEORIA         FOG       34  34 100 E8        30.19S VSB<1/4 WCI  27
$$

NOTE: "FAIR" INDICATES FEW OR NO CLOUDS BELOW 12,000 FEET WITH NO
SIGNIFICANT WEATHER AND/OR OBSTRUCTIONS TO VISIBILITY. WIND
SPEEDS ARE IN MILES-PER-HOUR.




USA.gov is the U.S. government's official web portal to all federal, state and local government web resources and services.